Showing default

POLYITAN 1, 40042

Orbit data source: Space-Track

POLYITAN 1, 40042 is a payload satellite owned by Kyiv Polytechnic (UA) in SSO that was launched on Thu, 19 Jun 2014 UTC via a DNEPR launch vehicle from the Orenburg, Russia (OREN). Payload-class satellites include a variety of spacecraft equipped with specific instruments for various scientific and technological missions. These include communications satellites like Starlink; space stations such as the ISS; scientific satellites like the Hubble; Earth observation satellites from companies like Planet Labs, Umbra, and HawkEye 360; GPS; miniature CubeSats for education and research; and military/defense satellites.

Loading next visibility...
Identifier
40042, 2014-033AJ
Orbit
SSO
Country
Flag of UAUA / UKR
Related business
Manufacturer
Kyiv Polytechnic
Mission
Operational Amateur Technology
Bus & Motor
CUBESAT 1U, Unknown motor
Mass
1 kg wet, 1 kg dry
Launch date (UTC)
2014-06-19 (12 years ago)
Launch vehicle
DNEPR
Launch site
Orenburg, Russia (OREN)
Object type
Payload
Rocket body
Debris
Shape & HBR
Box, 0.1 m
Radar Cross Section
0.015 m², Medium (>0.1 m² and < 1m²)

Expand to show TLE details & history
Last TLE update: 11 hours ago

TLE from 11 hours ago
0 POLYITAN 1
1 40042U 14033AJ  26254.05374823  .00014452  00000-0  41445-3 0  9999
2 40042  98.0899 288.6116 0006186 192.3852 167.7238 15.35994672666764
Epoch: 2026-09-11T01:17Z
TLE epoch observation values (Epoch: 2026-09-11T01:17:23.847Z)
Latitude
-0.00007°
Longitude
-80.82037°
Altitude
465.192 km
Speed
7.632 km/s
True Right ascension
19h 14m 26s
True Declination
0° 00' 00"
Sunlit
Object was in full shadow at epoch
Visualization orbit readout
Latitude
Unknown
Longitude
Unknown
Altitude
Unknown
Speed
Unknown
Apparent Right ascension
Unknown
Apparent Declination
Unknown
Sunlit
N/A
Visualization observer readout
Local Sidereal Time
04:28:49
Azimuth
Unknown
Elevation
Unknown
Doppler factor
Unknown
Orbital elements
Apogee altitude
459.17 km
Perigee altitude
450.716 km
Semi-major axis
6,833.08 km
Eccentricity
0.00062
Inclination
98.0899°
RAAN
288.6116°
Arg. of periapsis
192.3852°
True anomaly
167.73886°
Mean anomaly
167.7238°
Eccentric anomaly
167.73133°
Mean motion
3.84254 °/min
Orbital period
93.69 mins
BSTAR
0.00041445
Loading maneuver chart data...
Computing Atmospheric mass density...
Loading historical data...
Loading historical data...
Loading historical data...
Loading historical data...
Loading historical data...
Loading historical data...
Loading historical data...

Documentation

Showing up to 5 results
|